Location: Unspecified
(0.0000°N, 0.0000°E)
Time: 07:17:42
(UTC+00:00)

Vanguard 2 - Pass Details

Date: 17 September 2019
Orbit: 554 x 2937 km, 32.9° (Epoch: 14 October)

Event Time Altitude Azimuth Distance (km) Brightness Sun altitude
Rises 04:03:33 0° 277° (W) 6,124 - -27.8°
Reaches altitude 10° 04:11:10 10° 300° (WNW) 4,537 - -25.9°
Exits shadow 04:15:18 13° 320° (NW) 3,905 10.8 -24.8°
Maximum altitude 04:16:13 13° 325° (NW) 3,807 10.7 -24.6°
Drops below altitude 10° 04:20:27 10° 351° (N) 3,650 10.9 -23.5°
Sets 04:25:14 0° 18° (NNE) 4,114 11.5 -22.4°
